Cosmos 1151 - Orbit

View from above orbital plane
View from above orbital plane
View from above satellite
View from above satellite

Ground track
Ground track

The orbit data is extracted from the following two-line orbital elements,

1 11671U 80005A   13139.15038418  .00025449  00000-0  46516-3 0  1122
2 11671 082.4811 015.8013 0004481 002.3011 143.8347 15.49226735826701
Epoch (UTC): 19 May 2013 03:36:33
Eccentricity: 0.0004481
inclination: 82.4811°
perigee height: 416 km
apogee height: 422 km
right ascension of ascending node: 15.8013°
argument of perigee: 2.3011°
revolutions per day: 15.49226735
mean anomaly at epoch: 143.8347°
orbit number at epoch: 82670

The dashed part of the orbit path shows where the satellite is in the earth's shadow,  

Developed and maintained by Chris Peat, Heavens-Above GmbH. Please read the updated FAQ before sending e-mail. Imprint. DLR